Regional Weather Roundup
Issued by NWS Midland/Odessa, TX

Skip options and go directly to product.
Home | Oldest Version | Previous Version | Current Version | All | Text Only | Save Text | Print | Product List | Glossary Off

Skip product version selection by date and time.   

938
ASUS44 KMAF 310010
RWRMAF
MIDLAND AREA WEATHER ROUNDUP
NATIONAL WEATHER SERVICE MIDLAND TX
700 PM CDT TUE AUG 30 2016

...IN SOUTHWEST TEXAS AND SOUTHEAST NEW MEXICO...

CITY           SKY/WX    TMP DP  RH WIND       PRES   REMARKS
ALPINE         CLOUDY    73  63  71 NE8       30.21S
ANDREWS        PTSUNNY   73  70  91 N7        30.12S
ARTESIA        PTSUNNY   73  66  78 N7        30.17S
BIG SPRING     CLOUDY    81  65  58 NE10      30.08F
CARLSBAD       CLOUDY    73  66  78 E5        30.13F
DRYDEN           N/A     83  66  56 SE8       29.99S
FORT STOCKTON  MOSUNNY   82  62  50 NE7       30.07R
GUAD PASS      CLOUDY    63  62  97 NE25      30.22
HOBBS          PTSUNNY   68  68 100 NW10      30.18R
MARFA          MOSUNNY  N/A N/A N/A NE12      30.19R
MIDLAND AIRPK  CLOUDY    80  63  55 E9        30.08S
MIDLAND INTL   CLOUDY    80  63  55 E5        30.07S
ODESSA         CLOUDY    79  64  60 SE3       30.09S
PECOS          MOSUNNY   71  68  91 NW13      30.07F
PRESIDIO       FAIR      80  66  64 NE9       30.02
SEMINOLE       RAIN      67  65  91 CALM      30.16R
SNYDER           N/A     83  64  52 E8        30.08R
WINK           PTSUNNY   74  68  81 N12       30.07S
$$
...OTHER STATIONS IN TEXAS...

CITY           SKY/WX    TMP DP  RH WIND       PRES   REMARKS
ABILENE        SUNNY     85  67  54 NE12      30.03R
AMARILLO       PTSUNNY   71  64  78 N5        30.21S
AUSTIN         PTSUNNY   87  73  62 E5        29.91S
BROWNSVILLE    CLOUDY    85  75  72 NE10      29.82R
CORPUS CHRISTI CLOUDY    81  74  79 NE9       29.88S
DALLAS FTW     PTSUNNY   90  69  50 NE6       29.94S
DEL RIO        LGT RAIN  77  72  84 E12       29.97R
EL PASO        PTSUNNY   77  61  57 E13       30.10F
HOUSTON INT    CLOUDY    88  74  63 E8        29.88S
LUBBOCK        TSTM      67  65  93 N10G22    30.16R FOG
SAN ANGELO     CLOUDY    84  66  54 E12       30.02R
SAN ANTONIO    CLOUDY    83  71  67 CALM      29.93F
WACO           MOSUNNY   84  71  65 E6        29.93F
WICHITA FALLS  NOT AVBL
$$
...OTHER LOCATIONS IN NEW MEXICO...

CITY           SKY/WX    TMP DP  RH WIND       PRES   REMARKS
ALAMAGORDO     MOSUNNY   79  55  44 CALM      30.14R
ALBUQUERQUE    MOSUNNY   79  50  36 SE13      30.21S
CANNON AFB     CLOUDY    69  65  89 NE12      30.24R
CLOVIS         MOSUNNY   70  61  73 NE12      30.25R
HOLLOMAN AFB   PTSUNNY   79  56  45 S5        30.11S
ROSWELL        CLOUDY    74  60  61 NW7       30.18R
RUIDOSO          N/A     59  54  82 SE9       30.36S
SANTA FE       CLOUDY    73  51  46 SE18      30.29S
TRUTH OR CONSE PTSUNNY   80  50  34 SE8       30.14S
TUCUMCARI      LGT RAIN  68  66  93 S3        30.23S
$$

USA.gov is the U.S. government's official web portal to all federal, state and local government web resources and services.